{"data":{"norad_id":53797,"epoch":"2026-05-25T03:20:59.297280Z","epoch_age_seconds":77078,"freshness":"FRESH","line1":"1 53797U 22111AA  26145.13957520  .00000156  00000+0  27897-4 0  9996","line2":"2 53797  53.2146 290.4892 0001269  82.5251 277.5885 15.08839439205222","mean_motion":15.08839439,"eccentricity":0.0001269,"inclination_deg":53.2146,"raan_deg":290.4892,"arg_perigee_deg":82.5251,"mean_anomaly_deg":277.5885,"bstar":2.7897e-5,"rev_number":20522,"period_min":95.437590162302,"perigee_km":538.86722447824,"apogee_km":540.62298295616,"semimajor_km":6917.8821037172,"source":"CELESTRAK","updated_at":"2026-05-25T13:38:17.545155Z"}}